Vorticity
nan nan nan nan nan nan nan nan nan nan nan nan nan nan nan nan nan nan nan nan nan nan nan nan nan nan nan nan nan nan nan nan nan nan nan nan nan nan nan nan nan nan nan
nan 9 9 8 10 9 8 8 8 8 8 8 9 9 8 8 9 9 7 7 8 7 7 7 8 8 8 8 8 9 8 8 8 7 9 9 9 8 8 8 8 8 nan
nan 9 9 9 9 8 9 9 8 9 8 9 9 10 9 9 8 10 9 8 8 8 8 8 8 7 7 8 9 8 8 8 9 9 8 8 10 11 9 8 7 8 nan
nan 9 7 10 9 9 9 9 9 9 9 9 9 9 9 9 9 10 10 9 8 8 9 8 9 7 8 8 10 9 8 8 8 8 8 9 9 9 7 10 10 7 nan
nan 9 10 9 9 9 10 10 9 8 9 9 9 9 8 8 11 13 11 9 9 9 9 9 10 11 11 7 6 9 9 8 7 8 9 9 9 7 9 8 8 8 nan
nan 8 9 10 11 9 10 10 9 9 9 9 9 10 6 9 15 12 7 9 9 9 10 10 11 13 12 9 3 7 8 7 6 7 9 9 9 7 9 10 9 7 nan
nan 10 10 10 10 11 10 10 10 9 9 10 9 9 9 10 15 13 4 3 9 9 9 10 10 11 10 8 11 9 8 6 6 7 8 9 11 12 7 11 10 8 nan
nan 9 10 11 11 11 10 9 10 12 10 9 10 9 8 11 15 14 9 1 5 9 10 10 10 10 12 7 9 10 10 9 10 9 11 13 13 15 13 7 7 10 nan
nan 9 10 10 10 10 9 9 9 9 11 11 10 11 9 11 15 12 7 6 7 10 12 12 12 12 12 10 10 13 11 11 13 12 9 15 15 7 9 7 9 8 nan
nan 11 10 10 11 11 10 9 10 11 9 9 11 12 10 13 12 15 5 5 12 11 13 14 12 11 15 15 10 10 13 13 10 11 9 8 9 9 8 5 9 9 nan
nan 13 13 12 10 9 11 12 11 11 14 15 12 11 12 13 14 19 4 -2 10 9 8 11 16 18 12 12 6 9 14 13 13 10 9 9 10 9 10 12 9 9 nan
nan 14 12 12 11 13 11 11 12 10 6 11 14 12 15 16 17 18 14 7 0 7 12 9 19 18 9 8 8 12 14 11 10 10 10 10 10 11 12 12 10 10 nan
nan 12 13 12 11 11 12 10 10 8 10 13 12 7 11 14 19 21 19 10 5 12 18 21 19 16 8 10 13 8 6 7 12 11 10 10 11 11 11 11 10 10 nan
nan 12 12 11 13 13 12 12 11 11 9 7 11 13 14 13 12 13 17 10 13 20 8 12 18 14 10 11 13 9 8 13 12 11 10 11 12 10 8 9 10 9 nan
nan 15 14 14 11 9 13 20 20 15 19 19 13 17 14 13 17 19 16 14 15 3 13 17 9 3 9 9 9 10 10 13 12 11 11 10 9 9 10 10 10 8 nan
nan 13 13 13 11 11 9 7 16 29 23 18 19 12 14 21 19 14 9 14 12 7 6 4 11 10 11 10 10 10 12 12 11 10 11 10 9 10 9 9 9 8 nan
nan 12 11 11 10 11 11 9 2 1 14 21 12 10 11 8 9 8 10 10 0 0 5 10 9 9 11 12 10 11 11 11 11 10 10 10 9 11 10 9 9 9 nan
nan 12 12 11 11 11 11 9 8 7 5 0 -1 6 10 19 15 10 9 8 5 9 16 14 12 10 11 13 11 11 10 11 11 11 11 10 10 10 10 10 9 10 nan
nan 13 13 13 12 11 12 11 10 8 7 8 6 7 14 17 21 17 3 6 9 12 14 12 10 14 13 11 11 11 12 11 11 11 11 11 11 10 10 9 8 8 nan
nan 12 15 14 13 11 10 7 8 12 13 12 11 8 8 7 11 10 12 13 11 10 13 15 12 12 13 11 11 10 11 12 12 11 11 11 11 10 11 10 9 10 nan
nan 9 11 12 12 11 11 11 10 9 11 13 14 14 11 10 12 11 13 11 13 13 11 11 11 11 11 11 12 12 11 11 11 11 11 11 10 10 10 10 10 9 nan
nan 11 10 11 12 13 11 12 13 12 11 9 10 17 14 11 12 11 11 12 11 11 11 12 12 12 13 13 12 11 11 10 10 10 11 11 10 10 10 9 9 10 nan
nan 12 11 11 11 13 12 12 13 14 13 13 13 12 11 10 13 14 12 12 12 11 11 11 11 12 12 12 12 12 12 12 12 12 11 10 11 10 9 9 10 10 nan
nan 14 13 10 11 11 12 14 13 13 16 14 11 10 12 11 12 12 11 10 11 11 11 12 12 11 9 10 11 11 14 14 13 14 12 11 10 10 9 10 11 9 nan
nan 13 13 12 11 11 11 11 11 13 15 13 13 11 11 12 11 11 11 11 12 11 10 9 11 11 10 9 11 11 11 13 12 11 14 13 11 8 8 10 10 11 nan
nan nan nan nan nan nan nan nan nan nan nan nan nan nan nan nan nan nan nan nan nan nan nan nan nan nan nan nan nan nan nan nan nan nan nan nan nan nan nan nan nan nan nan
CAPE
1522 1637 1728 1726 1828 1990 2011 2138 2147 2308 2424 2408 2248 2382 2394 2223 2095 1810 1535 1077 648 537 240 252 242 198 29 72 51 5 0 0 0 0 0 8 113 269 121 242 233 269 79
1457 1671 1768 1922 1974 1992 2050 2108 2162 2220 2330 2430 2453 2244 2258 2220 2146 1859 1604 1158 905 716 515 315 231 125 254 229 97 210 25 25 6 175 28 22 145 288 326 347 70 0 0
1437 1616 1871 1957 1949 1993 2055 2191 2242 2189 2242 2202 2264 2409 2161 2178 2081 1904 1766 1465 1038 879 678 571 400 279 273 229 179 123 137 183 139 10 0 47 51 40 98 142 82 4 9
1335 1528 1719 1868 1962 1963 2074 2197 2249 2238 2223 2282 2267 2369 2446 2332 2066 1817 1696 1627 1319 1018 840 755 617 438 383 486 352 325 281 253 222 175 98 38 85 86 53 36 37 42 41
1551 1585 1766 2081 2183 2215 2249 2245 2303 2371 2220 2282 2203 2234 2352 2343 1825 2107 1867 1732 1558 1302 1084 883 777 560 188 247 263 431 569 356 209 213 159 12 23 3 89 139 120 67 35
1639 1694 1831 2128 2245 2268 2325 2369 2419 2438 2428 2440 2277 2206 2238 1849 1259 1016 1649 1885 1587 1801 1831 1289 976 214 72 0 5 123 512 762 819 229 84 77 231 178 171 171 73 101 51
1737 1803 1994 2188 2230 2314 2357 2446 2507 2566 2662 2591 2490 2302 2247 2247 707 331 468 2152 2103 2178 2157 1911 1250 605 196 151 1 0 0 27 244 870 579 622 531 418 249 0 83 56 154
1883 2030 2169 2289 2287 2327 2364 2370 2399 2454 2594 2752 2684 2624 2402 2249 632 102 199 1635 2383 2462 2249 1994 1625 975 617 515 402 385 167 240 124 162 668 849 743 134 101 159 195 150 212
1935 2160 2296 2252 2377 2483 2484 2416 2375 2341 2357 2452 2740 2848 2783 2646 557 32 68 1444 2166 2490 2065 1856 1515 1256 720 4 663 966 746 732 152 10 34 33 0 0 1 9 79 9 46
2068 2176 2309 2380 2435 2508 2591 2579 2593 2503 2390 1999 2424 2760 2427 2875 840 0 45 1565 2016 2076 1762 1715 344 626 274 0 235 868 1085 943 492 95 8 1 0 2 0 55 167 177 147
2093 2383 2611 2651 2682 2533 2701 2767 2858 2594 2600 2822 2761 2690 2782 2461 2392 0 0 1648 1926 1640 1206 903 452 9 12 0 35 889 799 853 287 404 212 64 64 98 20 22 53 1 1
2384 2276 2864 2958 2483 2448 2862 2439 2845 2625 2039 2681 3463 2937 2533 2444 1260 0 0 141 1295 1240 799 472 433 1 0 1 0 243 162 176 424 319 113 124 25 7 4 0 0 0 0
2105 2619 2771 2931 2911 3174 3146 2991 2707 2774 2353 2656 3044 3012 2582 1672 1522 52 1 0 38 648 530 269 40 2 1 1 0 2 0 291 164 229 271 70 9 0 0 0 0 0 0
2658 2872 2978 2904 3046 3124 2987 2999 2967 3135 3329 3172 3221 2871 2594 1857 962 0 1 0 1 3 0 1 0 0 0 0 0 1 41 357 308 136 13 5 0 0 0 0 0 0 0
2116 2257 2409 2561 2528 1591 614 1695 3604 3817 3093 3554 3324 2329 622 1 1 0 1 5 26 0 6 0 0 3 2 2 2 2 3 1 5 2 6 0 0 0 0 0 0 0 0
2152 1759 718 393 423 18 3 1 1 25 672 378 0 0 1 0 1 2 2 1 1 0 1 1 1 3 2 4 4 4 2 2 2 8 0 0 0 0 0 0 0 0 0
921 310 53 418 65 10 37 9 1 0 0 0 0 0 0 0 0 0 0 2 2 0 0 1 14 2 4 10 5 3 4 4 21 4 0 0 0 0 0 0 0 0 0
490 122 477 618 513 379 396 167 43 4 2 3 1 1 1 1 0 1 1 1 0 0 63 2 1 6 7 3 0 1 1 5 1 0 0 0 0 0 0 0 0 0 0
636 483 450 360 194 29 4 4 0 1 35 6 4 0 1 1 1 1 0 4 3 2 5 5 4 7 2 0 0 0 0 0 0 1 1 0 0 0 0 0 0 0 0
4 1 33 32 103 326 232 194 34 6 4 5 6 1 2 2 3 7 1 12 4 3 5 23 4 0 0 0 0 0 0 0 0 0 0 0 0 0 0 0 0 0 0
20 10 1 21 69 153 50 3 2 5 7 6 6 2 0 1 4 10 7 6 1 4 4 0 0 0 0 0 0 0 0 0 0 0 0 0 0 0 0 0 0 0 0
25 19 25 16 4 1 3 4 3 4 3 4 3 1 1 8 9 11 7 5 0 0 0 0 0 0 0 0 0 0 0 0 0 0 0 0 0 0 0 0 0 0 0
397 232 110 42 6 0 6 7 7 10 3 3 4 1 0 1 0 0 0 0 0 0 0 0 0 0 0 0 0 0 0 0 0 0 0 0 0 0 0 0 0 0 0
469 496 496 238 85 29 13 1 3 0 4 2 0 0 0 0 0 0 0 0 0 0 0 0 0 0 0 0 0 0 0 0 0 0 0 0 0 0 0 0 0 0 0
93 172 245 167 99 60 40 1 2 10 6 3 1 0 0 0 0 0 0 0 0 0 0 0 0 0 0 0 0 0 0 0 0 0 0 0 0 0 0 0 0 0 0
10 50 91 55 117 75 23 2 1 0 0 2 0 0 0 0 0 0 0 0 0 0 0 0 0 0 0 0 0 0 0 0 0 0 0 0 0 0 0 0 0 0 0